Location: Pabrico
(37.5827°N, 122.0063°W)
Time: 23:49:58
(UTC+00:00)

H-2A R/B - Pass Details

Date: 13 April 2024
Orbit: 732 x 833 km, 98.2° (Epoch: 21 May)

Event Time Altitude Azimuth Distance (km) Brightness Sun altitude
Rises 12:00:20 0° 21° (NNE) 3,194 6.0 -18.4°
Reaches altitude 10° 12:02:46 10° 30° (NNE) 2,278 5.3 -18.0°
Maximum altitude 12:07:26 39° 98° (E) 1,144 3.4 -17.2°
Drops below altitude 10° 12:12:11 10° 167° (SSE) 2,320 4.4 -16.3°
Sets 12:14:39 0° 175° (S) 3,260 5.1 -15.9°
